Weather reports worldwide

Advertisment
St-Nazaire, France (7217): temperature & dewpoint: 12.01.2020 12:00:00 - 18.01.2020 12:00:00 (CET)St-Nazaire, France (7217): temperature 5cm: 12.01.2020 12:00:00 - 18.01.2020 12:00:00 (CET)St-Nazaire, France (7217): temperature -20cm: 12.01.2020 12:00:00 - 18.01.2020 12:00:00 (CET)St-Nazaire, France (7217): wind speed & gusts: 12.01.2020 12:00:00 - 18.01.2020 12:00:00 (CET)St-Nazaire, France (7217): wind direction: 12.01.2020 12:00:00 - 18.01.2020 12:00:00 (CET)St-Nazaire, France (7217): reduced air pressure: 12.01.2020 12:00:00 - 18.01.2020 12:00:00 (CET)St-Nazaire, France (7217): visibility: 12.01.2020 12:00:00 - 18.01.2020 12:00:00 (CET)St-Nazaire, France (7217): precipitation: 12.01.2020 12:00:00 - 18.01.2020 12:00:00 (CET)
Date & Time tt [°C] td [°C] tt 5cm [°C] tt -20cm [°C] ff [km/h] ff [kn] fx [km/h] fx [kn] dd ppp [hPa] vv [km] rr [mm]
18.01.2020 12:00:00 8,6 6,4 8,8 9,6 14 7 20 11 E 1026,8 12 0,0
18.01.2020 11:00:00 7,2 6,0 4,8 9,7 9 5 15 8 E 1027,0 13 0,0
18.01.2020 10:00:00 4,4 4,1 1,2 9,7 11 6 15 8 ENE 1027,0 15 0,0
18.01.2020 09:00:00 3,7 3,4 0,4 9,8 7 4 14 7 E 1027,5 14 0,0
18.01.2020 08:00:00 3,5 3,1 1,1 9,9 10 6 12 7 E 1027,5 17 0,0
18.01.2020 07:00:00 3,8 3,4 1,8 9,9 8 5 14 8 E 1027,7 15 0,0
18.01.2020 06:00:00 3,3 2,7 1,2 9,9 9 5 13 7 E 1027,8 14 0,0
18.01.2020 05:00:00 5,2 4,0 0,2 10,0 3 2 9 5 W 1027,9 20 0,0
18.01.2020 04:00:00 4,9 3,9 -0,1 10,1 4 2 6 3 WSW 1028,1 20 0,0
18.01.2020 03:00:00 5,4 4,2 -0,7 10,1 4 2 8 4 WSW 1028,1 19 0,0
18.01.2020 02:00:00 5,2 4,0 -0,7 10,1 4 2 7 4 S 1028,2 20 0,0
18.01.2020 01:00:00 4,5 3,0 -0,5 10,2 6 3 10 5 SSW 1028,3 19 0,0
18.01.2020 00:00:00 6,0 4,2 0,5 10,2 5 3 11 6 WSW 1028,3 20 0,0
17.01.2020 23:00:00 7,7 4,5 3,6 10,3 9 5 35 19 WNW 1028,1 20 0,0
17.01.2020 22:00:00 7,7 4,3 3,0 10,3 14 7 22 12 W 1027,8 45 0,0
17.01.2020 21:00:00 7,1 4,1 2,7 10,3 8 5 16 9 W 1027,2 46 0,0
17.01.2020 20:00:00 6,8 4,5 3,8 10,3 11 6 40 22 W 1026,9 56 0,2
17.01.2020 19:00:00 6,3 2,9 3,7 10,3 11 6 34 19 WSW 1025,9 52 0,0
17.01.2020 18:00:00 8,9 3,5 7,3 10,3 18 10 35 19 W 1025,3 60 0,0
17.01.2020 17:00:00 9,1 4,5 8,0 10,4 18 10 32 18 W 1024,7 60 0,0
17.01.2020 16:00:00 9,6 3,8 8,3 10,4 20 11 48 26 W 1024,1 60 0,0
17.01.2020 15:00:00 10,8 4,0 12,2 10,4 30 16 50 27 W 1023,2 60 0,0
17.01.2020 14:00:00 10,9 4,6 10,1 10,4 26 14 52 28 W 1022,7 60 0,0
17.01.2020 13:00:00 10,1 5,1 7,5 10,4 18 10 51 27 W 1022,4 54 0,8
17.01.2020 12:00:00 11,3 6,0 9,9 10,5 21 11 45 24 W 1022,2 13 0,0
17.01.2020 11:00:00 11,0 6,3 9,2 10,5 16 9 31 17 W 1021,1 19 0,0
17.01.2020 10:00:00 10,0 5,4 8,0 10,5 23 12 40 22 W 1020,3 20 0,0
17.01.2020 09:00:00 9,8 6,0 7,9 10,5 21 12 37 20 W 1019,1 20 0,0
17.01.2020 08:00:00 10,4 6,3 7,3 10,5 29 16 43 23 W 1017,7 19 0,0
17.01.2020 07:00:00 9,9 6,6 7,8 10,5 23 12 37 20 WSW 1016,8 19 0,0
17.01.2020 06:00:00 9,9 7,7 8,0 10,5 21 11 43 23 WSW 1015,9 15 0,4
17.01.2020 05:00:00 10,6 8,7 8,6 10,4 20 11 34 18 SW 1015,3 14 0,0
17.01.2020 04:00:00 10,7 8,8 9,2 10,4 22 12 41 22 SW 1015,5 18 0,0
17.01.2020 03:00:00 11,5 10,4 9,9 10,4 27 14 46 25 SW 1015,1 8 0,2
17.01.2020 02:00:00 11,6 10,7 10,4 10,4 28 15 45 24 SSW 1014,4 19 0,0
17.01.2020 01:00:00 11,3 10,7 10,4 10,4 28 15 46 25 S 1014,4 20 0,4
17.01.2020 00:00:00 11,2 10,7 10,4 10,3 24 13 38 20 S 1014,7 12 0,4
16.01.2020 23:00:00 11,0 10,7 10,5 10,4 21 11 32 18 S 1015,1 7 2,4
16.01.2020 22:00:00 11,3 10,7 10,6 10,3 18 10 29 16 SSW 1015,2 8 2,2
16.01.2020 21:00:00 12,0 10,9 11,0 10,3 20 11 30 16 SSW 1015,1 10 0,4
16.01.2020 20:00:00 12,5 11,2 11,8 10,3 16 9 38 20 SSW 1014,9 9 0,0
16.01.2020 19:00:00 13,2 10,9 12,4 10,2 24 13 46 25 SSW 1014,9 14 0,0
16.01.2020 18:00:00 13,3 9,9 12,3 10,2 35 19 61 33 S 1013,8 20 0,0
16.01.2020 17:00:00 13,5 9,9 12,7 10,2 36 19 63 34 S 1014,0 20 0,0
16.01.2020 16:00:00 13,5 9,7 12,9 10,2 35 19 57 31 S 1014,4 41 0,0
16.01.2020 15:00:00 13,4 9,6 13,4 10,2 37 20 64 35 S 1014,8 19 0,0
16.01.2020 14:00:00 13,2 9,3 13,7 10,2 36 19 55 30 S 1015,8 20 0,0
16.01.2020 13:00:00 13,0 9,1 13,3 10,3 32 18 49 26 S 1017,0 20 0,0
16.01.2020 12:00:00 12,4 8,7 11,3 10,3 32 18 48 26 S 1017,6 20 0,0
16.01.2020 11:00:00 10,5 7,9 8,8 10,3 29 16 50 27 SSE 1018,0 40 0,0
16.01.2020 10:00:00 9,5 7,3 7,6 10,3 28 15 45 24 SSE 1018,1 42 0,0
16.01.2020 09:00:00 9,1 6,9 7,1 10,4 26 14 39 21 SSE 1018,5 40 0,0
16.01.2020 08:00:00 8,8 7,6 7,1 10,4 17 9 33 18 SE 1018,5 13 0,0
16.01.2020 07:00:00 8,9 8,4 7,0 10,4 20 11 33 18 ESE 1019,0 15 0,0
16.01.2020 06:00:00 8,6 8,3 7,2 10,5 16 9 28 15 SE 1019,7 17 0,2
16.01.2020 05:00:00 8,7 8,6 5,8 10,5 16 8 27 14 SE 1020,5 12 0,0
16.01.2020 04:00:00 7,5 7,1 6,1 10,5 14 8 22 12 SE 1021,2 19 0,0
16.01.2020 03:00:00 7,8 7,2 6,1 10,5 16 9 23 13 SE 1021,5 19 0,0
16.01.2020 02:00:00 7,9 7,3 5,9 10,6 16 9 24 13 SSE 1021,6 17 0,0
16.01.2020 01:00:00 7,3 6,9 5,7 10,6 14 8 20 11 SSE 1022,2 16 0,0
16.01.2020 00:00:00 7,3 6,9 3,1 10,6 15 8 21 11 SSE 1022,2 20 0,0
15.01.2020 23:00:00 7,2 6,8 3,6 10,7 9 5 13 7 SE 1022,3 17 0,0
15.01.2020 22:00:00 7,8 7,2 5,4 10,7 12 6 25 14 SSE 1022,3 51 0,0
15.01.2020 21:00:00 9,1 8,3 5,8 10,7 19 10 28 15 S 1022,4 9 0,2
15.01.2020 20:00:00 7,3 6,9 2,9 10,7 8 4 24 13 S 1021,6 8 0,0
15.01.2020 19:00:00 7,3 6,4 4,3 10,7 10 5 11 6 SSW 1020,9 17 0,0
15.01.2020 18:00:00 9,2 7,0 5,3 10,7 8 4 18 10 SW 1019,6 56 0,0
15.01.2020 17:00:00 11,1 7,0 10,0 10,6 11 6 28 15 W 1018,5 60 0,0
15.01.2020 16:00:00 11,8 7,1 11,5 10,6 19 10 32 17 W 1017,3 56 0,0
15.01.2020 15:00:00 12,1 8,0 12,6 10,6 21 12 37 20 W 1016,0 46 0,0
15.01.2020 14:00:00 11,8 7,7 11,6 10,6 22 12 41 22 W 1014,7 60 0,0
15.01.2020 13:00:00 11,7 8,2 11,3 10,5 24 13 51 28 W 1013,7 60 0,0
15.01.2020 12:00:00 13,1 11,3 11,6 10,6 29 16 65 35 WSW 1012,0 15 0,2
15.01.2020 11:00:00 12,6 11,0 11,2 10,6 31 17 62 34 SSW 1009,9 11 0,6
15.01.2020 10:00:00 12,8 10,7 11,2 10,6 44 24 63 34 SSW 1009,1 10 0,8
15.01.2020 09:00:00 12,4 11,0 11,1 10,6 37 20 58 31 S 1008,7 8 1,2
15.01.2020 08:00:00 12,7 10,6 11,1 10,6 36 19 61 33 S 1007,7 9 0,2
15.01.2020 07:00:00 12,9 9,9 11,8 10,6 38 20 59 32 S 1007,3 18 0,0
15.01.2020 06:00:00 12,8 9,6 11,5 10,5 37 20 61 33 S 1007,2 18 0,0
15.01.2020 05:00:00 12,7 9,7 11,3 10,6 35 19 54 29 S 1007,7 17 0,0
15.01.2020 04:00:00 12,4 10,1 11,1 10,6 41 22 58 31 S 1008,1 16 0,0
15.01.2020 03:00:00 11,9 10,0 10,8 10,6 35 19 61 33 S 1008,4 13 0,0
15.01.2020 02:00:00 12,4 10,1 11,3 10,6 37 20 57 31 S 1008,5 15 0,0
15.01.2020 01:00:00 12,3 9,8 11,2 10,5 31 17 51 27 S 1008,9 17 0,0
15.01.2020 00:00:00 12,3 9,8 10,5 10,5 30 16 51 28 S 1009,2 18 0,0
14.01.2020 23:00:00 11,7 9,6 10,6 10,5 32 18 52 28 S 1009,2 18 0,0
14.01.2020 22:00:00 12,4 9,4 10,9 10,5 31 17 50 27 S 1009,3 20 0,0
14.01.2020 21:00:00 12,5 9,7 10,7 10,5 34 18 57 31 S 1009,5 20 0,0
14.01.2020 20:00:00 11,9 10,5 10,5 10,5 36 19 53 29 S 1009,9 14 0,2
14.01.2020 19:00:00 11,8 10,0 10,4 10,5 29 16 68 37 SSW 1009,8 9 1,5
14.01.2020 18:00:00 12,0 10,1 10,6 10,5 39 21 57 31 SSW 1009,7 10 0,8
14.01.2020 17:00:00 12,3 10,5 10,9 10,4 39 21 59 32 SSW 1009,4 8 1,4
14.01.2020 16:00:00 12,3 10,7 10,8 10,4 42 23 65 35 SSW 1009,0 10 1,6
14.01.2020 15:00:00 12,0 10,7 11,0 10,4 42 23 64 34 SSW 1008,6 8 1,6
14.01.2020 14:00:00 11,8 11,2 11,1 10,3 43 23 68 37 SSW 1008,8 4,2 3,2
14.01.2020 13:00:00 12,0 11,1 11,2 10,3 48 26 74 40 SSW 1008,9 3,5 1,4
14.01.2020 12:00:00 12,5 11,2 11,3 10,3 45 24 70 38 SSW 1008,8 10 2,3
14.01.2020 11:00:00 12,0 11,5 11,3 10,3 49 26 71 38 SSW 1008,6 7 1,8
14.01.2020 10:00:00 12,1 11,6 11,2 10,2 46 25 65 35 SSW 1007,9 4,3 1,2
14.01.2020 09:00:00 11,7 11,5 11,3 10,2 39 21 62 33 SSW 1007,5 3,1 1,6
14.01.2020 08:00:00 11,8 11,6 11,3 10,2 37 20 61 33 SSW 1007,4 2,1 1,8
14.01.2020 07:00:00 11,7 11,5 11,2 10,2 39 21 62 34 SSW 1007,2 4,1 1,8
14.01.2020 06:00:00 11,7 11,5 11,0 10,1 40 22 62 34 SSW 1007,0 4,7 1,2
14.01.2020 05:00:00 11,6 11,3 10,9 10,1 40 22 58 31 SSW 1006,9 1,9 0,8
14.01.2020 04:00:00 11,8 11,0 10,9 10,1 44 24 67 36 SW 1007,1 7 1,3
14.01.2020 03:00:00 11,6 11,1 10,8 10,1 44 24 78 42 SSW 1007,4 4,2 1,2
14.01.2020 02:00:00 11,8 10,7 10,8 10,0 48 26 79 42 SSW 1007,7 6 0,8
14.01.2020 01:00:00 12,2 10,6 10,6 10,0 53 29 80 43 SW 1008,2 11 1,2
14.01.2020 00:00:00 11,8 10,4 10,6 10,0 38 21 61 33 SSW 1008,6 9 0,6
13.01.2020 23:00:00 11,8 10,2 10,5 10,0 40 22 59 32 SSW 1009,0 11 1,2
13.01.2020 22:00:00 12,1 10,2 10,7 10,0 35 19 66 36 SSW 1009,6 11 0,4
13.01.2020 21:00:00 12,5 10,0 11,6 9,9 34 18 61 33 SSW 1010,1 17 0,0
13.01.2020 20:00:00 12,4 10,3 11,4 9,9 33 18 61 33 SSW 1010,4 18 0,0
13.01.2020 19:00:00 12,4 10,6 11,1 9,9 41 22 61 33 SSW 1010,5 18 0,0
13.01.2020 18:00:00 12,0 10,7 10,9 9,8 41 22 64 35 SSW 1010,8 18 0,2
13.01.2020 17:00:00 12,2 10,6 11,0 9,8 37 20 57 31 SSW 1011,0 18 0,0
13.01.2020 16:00:00 12,1 10,7 11,5 9,8 37 20 61 33 SSW 1012,2 17 0,0
13.01.2020 15:00:00 12,1 10,5 11,7 9,8 42 23 58 32 SSW 1013,2 19 0,0
13.01.2020 14:00:00 12,3 11,2 11,7 9,7 36 19 52 28 SSW 1014,2 15 0,0
13.01.2020 13:00:00 11,8 11,0 11,4 9,7 34 18 51 28 SSW 1015,6 15 0,2
13.01.2020 12:00:00 11,5 11,0 10,9 9,7 31 17 46 25 SSW 1016,7 47 0,0
13.01.2020 11:00:00 11,1 10,9 10,3 9,7 28 15 39 21 SSW 1017,6 19 0,0
13.01.2020 10:00:00 10,5 10,5 9,6 9,8 19 10 30 16 SSW 1018,4 16 0,4
13.01.2020 09:00:00 9,9 9,9 9,1 9,8 11 6 17 9 SSW 1018,8 2,5 0,6
13.01.2020 08:00:00 9,5 9,4 8,9 9,8 10 5 19 10 S 1019,4 8 0,0
13.01.2020 07:00:00 9,4 9,3 8,3 9,8 15 8 21 11 SSE 1019,5 18 0,0
13.01.2020 06:00:00 9,1 9,0 7,9 9,8 11 6 17 9 SSE 1020,5 18 0,0
13.01.2020 05:00:00 8,5 8,4 6,9 9,9 7 4 15 8 SSE 1021,7 19 0,0
13.01.2020 04:00:00 7,7 7,6 6,4 9,9 5 3 10 5 SE 1022,6 54 0,2
13.01.2020 03:00:00 7,8 7,4 6,4 9,9 4 2 24 13 SW 1023,8 60 0,0
13.01.2020 02:00:00 8,9 8,9 6,0 10,0 8 5 11 6 SW 1024,3 8 0,0
13.01.2020 01:00:00 8,4 8,4 5,6 10,0 6 4 14 8 S 1025,2 8 0,0
13.01.2020 00:00:00 6,8 6,8 0,7 10,0 6 4 10 5 S 1025,7 0,7 0,0
12.01.2020 23:00:00 6,6 6,6 0,6 10,0 9 5 11 6 S 1025,8 0,3 0,0
12.01.2020 22:00:00 7,1 7,1 0,8 10,0 3 2 9 5 SSW 1026,3 0,5 0,0
12.01.2020 21:00:00 7,4 7,1 0,8 10,0 9 5 11 6 WSW 1026,6 7 0,0
12.01.2020 20:00:00 7,9 7,6 0,9 10,0 3 2 6 3 SSW 1027,0 0,4 0,0
12.01.2020 19:00:00 8,8 8,3 1,9 9,9 5 3 10 6 SW 1027,1 5 0,0
12.01.2020 18:00:00 10,0 8,4 7,1 9,9 8 4 23 12 W 1027,0 16 0,0
12.01.2020 17:00:00 11,8 8,8 11,2 9,8 18 10 32 17 W 1026,8 19 0,0
12.01.2020 16:00:00 13,2 10,0 12,4 9,8 22 12 33 18 W 1026,5 19 0,0
12.01.2020 15:00:00 12,6 10,0 12,6 9,7 18 10 32 17 W 1026,6 18 0,0
12.01.2020 14:00:00 13,0 10,2 13,1 9,7 22 12 36 19 W 1026,8 19 0,0
12.01.2020 13:00:00 13,5 11,4 12,5 9,7 19 11 34 19 W 1027,3 19 0,0
12.01.2020 12:00:00 12,8 12,3 11,8 9,7 22 12 40 21 WSW 1027,7 20 0,0

tt = temperature
td = dewpoint
tt 5cm = temperature 5cm
tt -20cm = temperature -20cm
ff = wind speed
fx = gusts
dd = wind direction
ppp = reduced air pressure
vv = visibility
rr = precipitation

Next stations